Theta_e
303 295 292 292 295 296 298 299 299 298 299 299 298 296 294 294 295 296 296 297 296 297 296 297 298 298 300 301 302 303 303 302 302 302 303 304 305 305 306 306 307 308 309 319 317 316 315 318 320 323 326 327 328 328 329 330 332 333 333 333 333 335 334 333 332 332 332 331 330 331 330 330 332 332 333 334 335 334 335 337 336 335 334 335 334 333
300 294 294 296 298 298 298 299 298 298 298 298 296 296 295 296 294 296 297 297 298 296 296 297 297 298 300 301 302 304 303 302 302 302 302 303 305 306 306 307 308 309 316 313 312 311 313 312 314 314 317 321 324 326 327 327 329 331 332 332 333 333 333 332 332 332 332 332 331 330 330 330 332 332 332 333 335 336 337 338 337 336 335 335 334 331
294 292 296 298 298 299 298 298 298 297 296 297 295 295 294 295 296 295 296 297 298 295 295 297 296 297 299 301 302 302 302 303 304 304 303 304 305 306 307 308 309 312 313 312 310 312 310 312 312 311 312 314 317 321 325 327 328 329 330 331 332 332 332 332 332 332 331 332 333 332 331 331 331 332 336 335 335 336 337 337 337 336 334 333 332 333
290 294 298 299 299 297 296 297 297 297 297 296 295 293 291 296 293 291 294 297 296 296 296 297 296 298 300 302 302 304 304 304 306 306 306 308 307 307 308 309 309 310 311 310 309 309 309 311 311 311 311 311 313 315 320 323 325 326 328 329 330 331 331 332 332 331 333 333 333 332 331 331 331 329 334 336 336 335 337 336 336 335 334 334 333 333
293 296 294 298 298 297 294 296 295 295 294 299 299 296 294 295 294 297 294 296 296 296 295 296 295 295 298 298 299 303 304 302 303 303 303 304 307 308 309 307 308 306 308 309 310 310 309 308 308 310 311 311 311 312 315 319 322 324 326 328 330 330 331 331 331 331 331 331 330 330 330 330 330 331 330 331 331 332 331 332 334 335 335 335 334 334
295 293 295 295 297 297 296 293 295 296 293 295 299 299 297 297 295 295 295 294 293 293 296 295 289 291 297 298 298 302 299 300 301 301 302 303 304 305 303 304 306 308 308 307 307 309 310 309 309 309 310 310 310 310 312 314 319 321 324 326 328 329 329 330 330 330 329 327 327 326 325 323 323 323 324 324 325 327 328 328 330 333 334 334 334 334
295 291 293 296 296 297 296 294 297 297 293 293 294 299 297 296 297 296 295 295 290 288 294 294 289 287 297 297 299 300 299 299 302 300 301 303 304 304 304 305 305 306 307 307 306 306 306 307 307 308 308 310 309 309 311 312 314 317 319 322 325 326 327 328 328 329 327 326 326 325 324 324 323 322 324 326 326 326 327 330 330 332 334 335 333 332
293 293 294 297 296 297 296 293 297 297 294 292 296 298 297 297 297 296 297 296 295 295 294 294 295 289 290 296 300 298 297 298 299 301 301 302 303 303 304 306 307 308 308 309 309 308 307 307 307 307 307 308 309 309 310 310 311 312 315 318 321 323 323 325 326 326 325 324 324 324 324 324 323 323 323 325 325 326 326 326 327 327 328 330 334 333
294 292 295 295 296 295 294 296 301 299 295 295 294 300 298 297 298 298 297 296 296 294 290 292 297 289 289 296 297 297 296 297 298 300 302 302 304 304 305 305 306 306 307 307 308 309 307 306 305 305 307 309 309 310 308 308 310 311 313 316 319 320 321 323 325 324 324 323 324 324 324 322 322 323 323 325 326 325 326 325 325 326 327 328 329 329
296 295 297 297 296 294 296 294 298 301 295 294 297 300 300 301 301 299 296 295 293 290 286 292 294 287 288 296 296 296 296 296 298 300 301 303 304 304 305 305 305 305 306 307 306 306 307 308 309 309 310 310 311 312 312 311 311 313 314 315 317 318 321 322 323 323 323 323 322 322 323 322 322 322 322 323 323 324 324 323 324 324 324 325 326 327
294 295 295 297 296 296 293 294 297 297 298 298 300 298 297 297 297 296 296 294 290 285 288 291 291 291 285 294 296 295 296 297 299 299 301 302 303 303 303 303 305 304 306 307 307 307 308 308 309 309 311 311 311 312 311 312 312 314 315 315 316 318 320 321 322 321 322 322 321 321 322 322 321 322 321 321 321 322 322 321 321 322 322 324 324 325
295 294 296 295 293 296 298 295 297 298 299 301 298 295 294 293 294 292 290 293 285 284 287 288 290 292 284 290 297 298 296 298 299 299 300 301 302 303 303 303 303 303 305 307 308 308 308 308 309 311 311 311 311 312 313 313 314 314 316 316 317 319 320 320 320 320 320 320 321 321 321 321 322 322 321 320 320 320 320 320 319 320 320 321 322 322
292 294 296 295 296 295 299 295 294 296 297 298 296 294 289 286 287 284 287 283 284 284 285 287 289 287 287 293 296 297 297 297 300 302 301 302 301 302 303 303 304 304 304 307 308 309 310 311 311 311 311 312 313 313 314 314 316 316 316 317 317 315 317 317 318 318 319 320 320 320 321 321 321 321 321 321 320 320 319 319 318 318 318 319 319 319
291 296 296 297 297 296 299 292 290 290 294 295 293 291 287 284 282 281 284 286 286 284 286 287 290 285 292 294 299 298 299 299 300 300 302 302 302 303 303 304 303 304 304 306 308 310 310 311 311 312 312 313 313 313 314 315 315 317 317 317 316 315 316 316 316 317 318 319 319 320 320 320 320 320 320 320 320 320 320 319 319 319 319 319 319 319
285 285 291 294 291 299 296 297 296 294 294 294 304 295 290 288 284 280 284 281 282 285 284 288 285 285 286 291 298 298 297 298 298 298 300 300 300 302 303 303 303 303 304 306 308 309 309 310 311 311 312 313 313 313 314 315 316 317 317 318 317 315 315 315 315 317 317 317 318 318 319 319 319 319 318 318 319 319 319 319 319 319 319 319 320 320
289 290 292 295 295 296 297 298 297 299 295 297 297 298 291 290 293 285 286 286 285 284 283 283 285 291 293 299 298 299 299 297 298 298 298 299 301 302 303 304 303 303 304 305 306 306 307 308 309 311 311 312 312 313 314 314 315 317 317 318 318 316 315 316 316 317 318 318 318 318 317 317 317 317 318 318 318 318 319 319 318 318 318 319 319 320
288 285 293 296 295 294 295 295 296 298 287 293 294 289 292 296 292 284 283 284 282 284 284 289 288 292 296 297 299 299 297 297 296 297 296 298 301 302 303 305 302 304 304 305 307 307 307 307 309 311 310 310 311 312 313 313 315 316 315 316 316 316 316 316 317 317 318 318 318 318 318 317 317 316 316 316 317 318 318 318 317 317 317 318 318 318
288 287 291 294 292 294 294 292 297 294 295 294 287 292 295 297 297 290 284 284 283 281 284 287 285 288 289 286 297 295 295 296 296 296 297 300 301 300 304 305 303 304 306 306 307 308 309 309 309 310 311 311 311 311 310 310 311 313 314 314 313 313 312 313 314 315 315 315 315 315 316 316 316 316 316 316 316 317 316 316 316 315 315 315 316 316
296 284 289 289 292 294 297 297 294 296 295 294 293 303 292 285 285 288 287 280 280 280 283 285 286 287 290 291 293 293 294 295 297 297 297 298 299 301 303 301 303 304 305 306 306 307 307 309 309 309 309 308 308 309 309 309 309 310 311 311 314 313 313 312 312 312 312 313 314 314 314 314 314 314 313 314 314 314 313 313 313 313 314 314 314 313
297 288 286 292 292 293 294 294 287 290 297 296 295 292 295 291 289 286 286 287 286 282 282 283 283 284 293 293 295 294 296 297 297 297 296 298 300 302 302 302 304 306 307 307 307 308 309 309 309 308 308 308 308 308 309 309 310 310 310 310 309 309 310 310 311 310 311 311 311 311 311 311 311 311 311 311 311 311 311 311 311 312 312 312 312 312
291 294 285 289 293 293 286 290 290 292 287 288 290 288 292 292 294 291 294 287 285 284 284 283 282 287 295 297 296 296 296 297 298 298 299 300 302 303 303 304 306 307 307 308 308 308 308 307 306 306 306 306 305 306 308 309 308 307 307 307 308 308 307 308 307 308 309 309 309 309 309 309 310 309 309 309 309 309 309 310 310 310 310 310 309 310
289 289 286 287 287 287 290 293 292 293 295 292 291 289 290 288 286 284 283 289 285 285 283 283 281 289 296 295 296 297 297 297 296 298 302 301 301 300 303 305 307 307 307 308 308 308 307 306 306 305 305 305 305 305 305 306 306 306 306 306 305 306 306 306 306 306 306 307 307 307 307 307 307 307 307 307 307 307 308 307 308 308 307 307 307 307
295 295 289 285 288 290 292 294 293 294 291 293 293 292 295 293 292 287 282 285 285 285 283 286 282 286 297 295 295 295 295 295 296 296 298 299 300 300 303 305 307 307 307 307 306 306 307 306 305 305 305 305 306 306 305 306 307 306 305 305 306 306 304 304 304 305 306 306 306 305 305 305 305 305 305 305 305 305 305 305 305 305 305 305 305 305
294 289 287 286 290 291 293 293 294 292 294 293 293 294 293 291 292 291 288 289 286 284 283 285 281 288 297 297 294 294 294 294 294 294 297 298 299 301 302 304 305 305 305 305 305 305 305 305 304 304 304 305 305 306 306 306 306 305 305 305 305 303 303 303 304 304 305 305 304 304 304 304 303 303 303 303 304 302 303 302 302 302 302 302 303 303
288 291 290 285 284 286 288 291 291 294 294 291 291 294 294 296 293 290 290 290 286 286 287 285 280 287 293 295 295 293 295 294 295 296 295 299 301 302 302 303 304 304 304 303 303 304 303 303 303 306 307 306 305 305 305 305 304 304 303 303 303 303 303 302 303 304 304 305 304 303 303 302 302 301 301 301 301 301 301 301 301 301 301 301 301 302
291 291 289 283 280 278 278 279 282 286 288 291 294 295 295 294 293 289 286 287 284 288 287 285 285 292 294 294 295 295 295 295 296 297 295 300 303 302 303 304 304 304 303 303 304 303 303 305 305 305 305 304 304 304 304 303 303 303 302 301 302 301 302 301 302 303 303 303 303 301 300 300 300 299 299 299 299 299 299 300 300 300 300 300 300 300
290 294 291 289 287 285 287 289 294 296 292 287 289 291 292 294 294 292 292 287 285 288 286 288 290 292 290 293 293 295 295 294 295 295 295 296 301 304 304 304 304 304 304 303 304 304 305 303 303 305 304 303 302 302 302 302 302 302 302 300 300 300 300 300 301 301 301 301 301 300 298 298 298 298 298 298 298 298 298 298 298 298 298 298 298 298
290 288 292 292 291 292 296 296 298 296 292 291 290 290 293 291 291 289 287 286 292 287 284 291 294 289 291 293 295 295 296 297 296 297 297 299 301 303 304 304 301 303 303 303 303 303 302 303 304 303 303 302 301 301 300 300 299 299 299 299 299 299 299 299 300 299 299 299 298 297 297 297 297 296 296 297 297 297 297 297 297 297 297 297 297 297
289 287 293 292 293 297 295 295 297 296 295 294 294 293 292 292 290 287 288 293 294 287 285 292 293 290 293 294 296 297 298 297 297 298 299 300 301 303 302 301 301 301 302 301 302 302 303 304 304 303 302 301 300 300 299 299 299 299 299 298 298 297 297 298 298 298 297 297 296 296 296 296 296 296 296 295 295 295 295 295 295 295 295 296 296 297
291 288 292 290 290 294 292 293 296 294 294 294 294 294 293 292 291 291 291 293 293 292 293 294 297 295 295 296 297 299 301 301 300 300 299 300 300 300 301 301 301 302 302 302 302 303 304 304 304 303 302 300 300 299 298 298 298 297 297 296 296 296 296 297 296 296 296 295 295 295 295 295 295 294 294 294 294 293 293 294 294 294 294 294 294 295
293 289 293 289 288 289 290 290 291 294 294 291 294 294 293 293 292 292 293 293 293 293 294 294 294 294 298 299 298 302 298 298 298 296 297 299 300 300 300 301 302 302 303 303 303 303 304 304 303 301 300 300 299 298 298 297 297 296 296 295 295 295 295 296 295 295 294 294 294 294 294 294 294 294 293 293 292 292 292 292 292 292 292 292 293 293
292 288 289 288 286 285 288 289 289 288 288 288 290 292 292 291 289 291 289 293 291 290 292 293 290 292 297 299 299 299 298 297 297 298 298 300 301 301 301 301 302 303 303 304 304 304 303 302 301 300 300 299 298 297 297 296 296 296 295 295 294 294 295 295 295 294 294 293 293 293 293 293 293 293 292 291 291 291 290 291 289 289 290 290 291 291
288 289 286 287 285 284 283 286 286 287 286 284 285 291 293 293 293 294 295 295 295 295 291 288 290 296 298 298 297 297 298 298 298 298 300 301 302 302 302 302 303 304 304 305 303 302 302 301 300 300 299 297 297 296 296 296 295 294 294 293 293 294 294 294 294 294 293 293 293 292 292 292 292 292 291 290 290 289 289 289 289 289 289 289 289 290
288 288 288 288 284 284 281 284 287 284 278 280 293 296 296 293 293 291 292 293 296 296 294 296 296 299 298 297 296 296 297 297 299 302 303 303 304 303 303 304 304 304 305 304 302 302 302 300 299 298 297 297 296 294 294 294 294 293 293 293 294 293 294 293 293 293 292 292 292 291 291 291 289 290 290 289 289 289 288 288 288 288 288 289 289 288
287 288 288 288 285 283 282 284 281 276 278 291 297 299 298 297 296 294 294 295 296 296 296 296 297 297 299 298 298 298 298 299 300 300 301 302 303 306 303 302 303 304 303 303 301 301 300 299 297 296 294 293 293 293 293 293 293 293 293 293 292 293 292 292 292 292 291 291 290 290 290 289 289 288 288 289 288 287 287 288 287 287 288 288 289 288
288 288 290 287 288 285 282 282 276 278 287 295 295 293 297 297 296 295 293 296 296 296 297 296 297 298 299 299 299 301 301 300 301 300 300 302 302 304 301 302 304 302 301 302 300 300 299 297 295 294 294 293 293 293 293 292 293 292 291 292 291 291 291 291 291 290 290 289 289 289 289 288 288 288 288 287 287 287 287 287 286 286 287 288 288 288
293 289 290 286 288 282 282 283 282 290 287 289 292 291 293 291 292 291 287 291 296 297 297 296 297 298 299 300 300 299 297 297 299 298 301 299 299 297 299 302 301 302 302 300 300 298 297 296 294 293 293 293 293 292 291 292 292 291 291 290 290 290 290 289 289 288 289 288 288 288 288 287 287 286 286 286 286 285 286 286 286 286 287 286 287 287
295 289 291 287 285 288 284 281 282 282 279 285 294 298 298 299 299 298 292 289 297 298 299 298 297 297 298 299 299 296 297 295 292 295 299 298 297 298 295 297 295 296 295 294 294 294 293 293 293 292 292 290 290 290 291 291 291 290 289 289 289 289 288 287 287 287 287 287 287 287 287 286 286 285 285 285 284 285 285 285 286 286 287 286 286 286
297 297 294 288 287 286 284 281 281 279 282 293 295 296 298 299 299 298 290 286 295 298 299 298 297 298 298 298 298 296 294 290 291 296 300 298 297 296 295 293 293 293 293 293 292 291 291 291 291 290 290 289 288 289 289 290 289 289 288 287 287 287 286 285 285 285 285 285 286 286 285 285 284 284 283 283 284 284 284 284 285 286 286 286 286 286
289 290 290 287 286 286 285 282 281 284 285 292 294 295 296 299 300 293 282 283 295 298 299 298 297 297 298 298 297 294 292 290 292 298 297 296 295 295 294 292 291 291 290 290 290 290 289 289 289 288 287 287 287 288 288 288 288 286 286 286 286 285 284 284 284 284 284 285 285 284 284 284 283 282 282 282 282 283 284 284 285 284 284 284 285 286
287 288 288 285 286 286 285 284 286 287 292 292 292 293 296 300 295 285 281 288 296 298 298 299 298 298 298 296 297 293 295 299 298 295 293 293 292 291 291 291 291 290 289 289 288 288 289 289 287 286 285 285 286 286 287 287 286 285 285 285 284 282 282 282 283 282 283 283 283 282 281 282 282 280 281 281 282 282 283 283 283 283 283 283 284 284
287 288 288 288 285 285 286 284 284 288 294 296 294 295 297 294 284 284 294 298 298 296 297 299 298 299 299 298 297 298 297 293 293 293 292 292 292 290 289 289 289 289 289 289 288 288 287 286 285 284 284 284 284 285 286 286 285 285 284 282 281 281 281 281 280 281 281 281 280 280 279 279 279 280 280 281 281 280 281 282 282 282 282 283 283 282
287 285 284 285 287 288 287 284 283 279 290 297 294 293 295 289 291 298 295 295 296 297 296 297 300 299 298 297 298 296 292 292 292 292 292 290 289 288 288 288 288 287 287 287 287 287 287 285 284 283 282 282 282 283 284 284 283 282 281 279 279 279 279 279 278 278 279 279 277 277 278 278 277 278 279 279 280 279 280 281 281 281 282 282 282 283
293 286 286 287 291 284 284 282 283 290 293 297 296 290 293 296 299 298 298 294 297 297 298 298 297 300 299 298 295 293 293 292 292 291 291 290 289 289 289 288 288 287 287 287 287 287 286 284 283 281 280 280 280 280 281 282 281 280 279 277 278 278 277 277 277 277 276 276 276 276 276 276 277 278 279 278 278 279 279 280 281 281 283 283 283 283
292 289 291 287 292 289 287 290 294 293 295 299 300 301 298 301 299 298 301 300 297 295 294 296 298 297 299 298 295 293 291 292 291 291 290 289 289 288 287 286 286 286 285 285 285 285 285 283 281 279 278 278 278 279 279 280 279 278 277 277 276 275 274 275 275 275 274 274 275 275 275 275 276 277 277 277 278 278 278 278 279 280 281 281 282 282
290 293 292 292 291 294 292 293 293 293 295 298 296 297 300 299 296 297 298 296 297 296 295 297 298 295 296 296 293 292 292 291 291 290 290 289 288 287 286 285 284 284 284 283 283 283 283 282 280 278 277 276 277 277 278 278 278 277 276 275 274 274 273 273 273 272 272 272 273 274 275 274 276 276 276 276 277 277 278 278 278 279 279 280 281 281
291 290 289 289 290 290 286 295 293 293 295 296 298 295 293 293 296 297 295 296 296 295 294 292 295 295 294 294 294 293 292 291 290 290 289 288 287 285 284 284 283 283 282 281 281 280 280 280 279 277 276 275 276 276 277 277 277 276 275 273 273 272 272 272 271 271 271 271 272 274 274 274 274 274 275 276 276 276 277 278 278 278 278 279 279 279
287 290 289 290 290 289 289 292 294 295 295 296 298 296 295 295 294 292 293 292 292 291 292 292 292 293 294 293 295 293 291 291 290 288 288 287 286 284 284 283 282 281 280 280 279 279 279 279 277 276 275 275 275 276 276 276 275 274 273 272 271 271 271 270 270 270 270 270 272 272 273 273 273 273 274 274 274 274 275 276 277 277 277 277 277 277
290 290 287 289 288 291 294 291 290 291 293 293 293 294 298 297 294 290 291 290 290 290 289 289 289 292 294 294 294 292 290 290 290 289 287 287 285 284 283 282 280 279 277 276 276 277 277 276 276 275 274 274 275 275 275 274 273 272 271 271 269 269 268 268 269 269 270 270 271 271 272 271 272 272 272 273 273 274 275 275 275 275 276 277 278 278
289 286 290 290 287 287 288 290 291 288 288 292 291 293 293 293 293 291 290 289 290 290 289 289 288 288 290 291 293 292 290 290 290 289 287 286 285 284 282 280 279 277 275 274 273 273 273 274 274 274 273 273 274 274 274 273 272 271 270 269 268 267 266 266 268 269 269 270 270 270 269 270 271 271 271 271 271 272 273 276 277 276 275 275 278 279
289 290 290 288 287 288 292 293 294 294 293 291 292 293 294 293 293 291 291 291 291 291 291 290 288 287 288 288 288 292 292 290 289 289 287 286 284 283 281 279 276 275 273 272 271 271 271 272 272 273 272 273 273 273 272 272 271 269 268 266 266 265 265 266 267 268 269 269 268 268 268 269 269 270 270 271 271 271 271 271 273 276 277 277 277 278
Wind_Speed
5 9 10 11 11 13 13 15 7 5 6 10 12 11 8 8 7 6 6 4 1 2 10 12 12 12 11 10 9 9 9 7 8 9 8 7 8 9 9 9 10 10 9 3 4 5 7 8 8 9 9 10 10 11 11 12 12 12 12 11 12 11 11 10 9 9 9 10 10 10 11 10 9 10 10 10 10 10 8 9 10 10 11 12 10 9
4 9 11 11 11 13 13 9 1 2 2 8 8 10 7 9 7 5 5 5 2 3 6 9 8 12 12 11 10 9 9 10 11 11 11 11 10 9 10 11 11 10 3 5 4 5 6 6 7 7 7 9 11 11 12 13 13 13 13 12 11 9 11 11 10 9 9 9 9 8 9 9 8 8 8 8 6 6 6 8 10 9 10 10 8 8
9 12 11 11 4 6 5 4 2 4 5 6 8 7 6 6 7 4 6 4 4 2 6 4 8 10 11 12 12 12 12 11 11 12 12 11 11 11 10 11 10 7 6 5 6 6 7 8 7 6 6 7 9 10 11 12 12 12 12 12 11 10 10 10 10 9 9 8 8 7 6 7 7 8 9 10 10 8 7 7 10 9 9 8 8 8
9 12 9 9 7 7 4 4 6 4 4 5 5 7 8 6 7 4 5 6 3 3 2 4 6 9 11 11 12 11 12 11 9 8 7 4 6 9 9 5 6 7 6 7 7 8 8 8 8 7 7 7 7 7 8 10 11 10 10 11 12 10 10 9 10 9 8 7 7 8 8 7 8 3 3 4 3 7 10 10 9 8 8 8 8 8
9 2 5 5 7 9 8 7 8 7 7 4 5 6 6 7 5 3 6 6 4 3 2 6 7 10 10 11 10 12 5 2 5 5 7 7 7 6 4 5 3 5 4 5 6 6 7 8 8 8 8 7 7 7 7 8 9 8 11 11 11 10 10 9 9 10 8 6 6 7 7 7 7 1 3 4 5 5 7 7 7 8 7 9 11 11
4 1 2 5 10 10 9 8 9 7 8 6 5 4 1 7 7 8 11 9 5 5 6 3 4 8 9 14 13 6 4 8 7 8 10 10 9 7 8 8 6 6 7 8 8 7 6 6 6 7 7 7 7 7 7 7 8 8 8 9 9 8 8 8 9 9 8 7 7 7 7 8 9 10 9 10 9 7 8 10 9 8 8 8 9 8
0 1 3 6 8 9 11 10 10 9 8 6 5 5 1 2 7 9 9 6 4 4 4 2 7 4 5 6 8 7 5 7 5 7 9 8 7 6 5 4 5 5 5 6 6 6 5 5 5 5 6 7 7 6 6 7 7 8 7 8 9 8 7 8 8 9 8 9 8 10 9 8 8 8 7 7 7 9 8 8 10 9 8 7 8 8
5 4 2 4 7 7 7 9 9 11 7 6 3 2 5 6 8 8 9 8 1 4 5 2 3 5 6 4 6 5 4 6 8 9 8 7 6 5 4 4 3 3 4 3 5 6 6 5 6 6 6 6 6 6 6 5 6 8 8 8 9 7 7 7 8 9 9 8 8 9 9 8 8 8 7 5 6 6 6 6 8 7 7 7 8 7
4 6 7 8 7 7 10 3 6 10 8 0 0 2 6 6 8 8 7 4 2 1 3 5 2 3 7 5 4 3 5 9 10 10 9 7 5 4 4 3 2 2 2 3 4 4 4 4 4 4 4 4 5 5 6 6 6 7 7 8 8 8 8 7 9 8 9 7 7 8 8 8 7 8 7 6 5 5 6 7 7 7 6 4 4 5
2 2 4 4 9 9 3 3 5 4 10 2 3 3 6 6 5 6 4 4 3 3 5 7 5 4 9 4 6 2 4 7 8 8 8 6 6 4 3 2 2 2 2 2 3 2 2 2 2 2 3 4 4 4 4 5 5 6 6 7 8 8 7 7 8 8 8 8 6 7 7 8 7 7 7 7 6 6 5 6 6 6 6 5 4 4
3 2 3 2 3 3 5 6 3 6 6 10 7 10 7 5 3 2 1 3 3 4 4 5 1 2 4 4 6 5 5 5 6 6 5 6 6 5 3 2 1 1 2 2 2 2 2 2 3 4 5 5 5 4 5 5 5 6 6 7 8 8 6 7 8 8 7 8 8 7 7 8 8 8 7 7 7 7 6 7 7 7 6 5 5 4
3 3 2 1 2 3 2 7 6 1 6 8 5 7 8 4 4 4 3 2 4 6 4 3 1 2 6 3 4 2 4 3 1 6 8 8 7 5 4 3 2 1 2 2 3 4 4 4 4 4 5 5 6 6 6 5 6 6 6 7 8 7 6 6 6 7 7 8 8 7 7 8 8 8 7 7 7 7 7 6 7 7 6 7 6 5
3 2 2 3 3 2 5 8 4 3 2 2 8 9 7 5 4 5 4 6 7 5 3 3 1 2 11 11 1 1 2 3 2 2 7 8 7 6 5 3 1 1 1 2 3 4 4 4 5 5 5 6 6 5 6 6 6 6 6 7 8 7 6 6 6 7 8 8 8 7 7 7 7 7 7 7 7 6 6 6 6 6 6 6 7 7
2 4 3 3 4 5 6 9 6 5 6 8 11 10 8 7 7 6 6 3 1 4 3 3 1 5 5 7 13 14 6 6 5 1 3 2 4 4 3 2 2 1 1 2 2 2 3 4 4 4 5 5 5 6 6 6 6 5 6 7 8 8 7 7 7 8 8 8 7 7 7 7 7 7 7 7 6 6 6 5 6 6 6 6 7 7
4 2 8 10 4 8 5 3 7 5 11 9 2 8 7 4 3 5 6 7 4 1 3 4 1 3 3 1 5 6 6 4 4 3 2 2 2 2 2 2 0 1 2 2 2 2 3 3 3 4 4 5 5 6 5 5 5 5 6 6 8 8 7 7 8 7 8 7 7 7 6 6 6 6 5 5 5 6 6 6 6 7 6 6 7 7
8 1 4 5 3 2 8 1 3 4 7 2 1 3 2 4 3 3 1 1 2 2 3 2 5 4 3 3 4 4 4 2 2 2 1 3 2 1 1 2 2 2 3 2 2 3 2 2 3 4 4 5 5 5 4 5 4 4 5 5 6 7 7 7 7 6 6 6 6 7 6 6 6 5 5 5 5 6 6 6 6 6 7 6 7 6
2 3 3 1 1 2 2 4 1 4 7 7 3 5 2 5 5 4 2 3 1 2 4 5 4 6 6 11 7 7 5 5 4 4 3 4 3 2 2 4 3 2 2 2 2 2 4 2 2 3 4 5 5 5 4 5 4 4 5 5 6 6 6 6 6 5 5 5 5 6 5 5 6 6 6 5 5 5 5 5 5 5 5 6 6 5
6 3 2 1 3 2 1 3 2 4 3 5 4 6 3 1 3 1 3 2 2 3 2 3 5 5 3 3 5 5 6 6 6 6 6 5 4 4 4 5 5 4 3 3 3 3 3 3 4 3 4 4 5 5 5 5 3 3 3 4 5 5 6 5 5 5 5 5 5 4 5 5 5 4 5 5 4 4 4 4 4 4 4 5 4 4
3 3 1 2 1 1 0 2 2 1 2 2 1 1 5 3 4 2 2 3 4 4 3 4 7 6 5 5 3 5 7 8 8 7 7 7 6 6 6 5 5 4 4 4 4 4 4 4 4 4 4 4 5 4 4 4 4 3 3 3 3 4 4 5 4 4 3 3 3 3 3 4 3 3 3 2 3 2 3 4 4 4 4 4 4 4
1 1 1 2 2 2 0 2 6 4 2 2 0 1 3 2 3 5 4 2 1 4 3 2 4 4 6 7 5 2 5 9 10 8 8 8 8 7 7 6 6 6 6 6 6 5 5 5 5 5 5 5 4 4 4 4 3 4 4 4 4 4 4 3 3 3 3 3 3 3 3 3 2 2 2 2 2 2 3 3 3 4 4 4 3 4
3 2 2 2 1 1 3 4 6 8 7 4 5 5 2 1 1 3 2 3 2 3 4 4 3 3 3 6 8 6 5 2 4 8 6 6 6 6 7 7 6 6 7 6 6 6 6 5 5 4 3 4 3 3 3 3 4 4 4 4 4 4 4 4 3 2 2 1 2 2 2 2 3 2 2 2 2 2 2 2 2 2 3 3 3 4
2 2 3 5 4 5 3 4 3 4 2 6 8 8 9 6 4 5 4 3 0 3 3 3 5 1 2 3 1 2 4 4 1 1 4 6 6 4 5 6 6 7 7 7 6 6 6 5 5 4 3 2 3 3 3 3 4 4 3 3 3 4 3 3 2 1 1 1 1 2 2 2 2 2 1 1 1 1 1 1 2 2 3 3 3 3
1 3 4 5 5 5 3 2 2 1 0 2 2 6 7 6 4 3 6 3 1 0 2 1 3 2 3 2 1 2 2 2 3 0 1 2 4 5 4 6 6 6 7 7 6 6 5 5 5 4 4 4 4 4 4 3 3 4 5 4 4 4 4 4 3 2 2 2 2 3 2 2 1 1 1 1 1 1 1 2 2 2 3 3 3 4
2 3 4 2 3 1 3 1 3 2 2 3 5 2 1 9 10 7 2 2 4 3 2 2 3 2 2 1 1 1 1 1 1 2 2 2 3 5 6 7 7 7 6 5 4 4 4 4 3 4 4 4 4 4 4 4 4 4 4 4 4 5 5 4 3 3 2 3 3 3 3 3 2 2 1 2 3 3 2 2 2 2 2 3 3 3
3 3 5 4 2 2 2 2 1 1 2 4 6 7 7 1 6 3 2 0 2 6 5 5 7 5 1 1 1 1 2 2 3 4 3 3 4 5 7 7 6 7 6 6 6 5 5 4 5 4 4 4 4 4 4 4 4 4 4 3 4 4 4 4 3 3 3 3 4 4 4 4 3 4 4 4 3 3 3 2 2 2 2 2 2 3
7 6 9 6 7 8 8 9 10 7 11 7 4 3 9 8 8 4 5 3 7 4 7 5 7 6 3 2 3 3 3 3 2 2 4 3 5 7 8 8 8 7 6 7 6 5 7 6 3 3 4 3 3 3 4 4 4 4 5 5 4 4 4 3 2 3 4 4 4 5 5 5 4 4 4 3 3 3 3 2 2 2 2 2 2 3
2 1 9 11 11 10 10 9 11 7 6 6 11 13 12 12 12 8 0 5 8 3 7 9 10 5 3 5 5 5 5 5 5 4 6 6 5 6 7 8 7 6 7 8 8 6 4 3 5 4 3 3 3 3 3 4 4 4 5 6 5 4 3 3 3 4 5 5 5 5 5 5 5 4 4 3 3 3 3 3 3 3 2 2 2 2
1 4 8 12 13 11 2 4 5 13 14 15 18 13 12 14 11 11 10 12 10 2 8 8 8 9 8 8 7 7 6 5 5 7 7 6 7 7 8 7 7 6 5 4 4 5 6 6 5 5 4 4 3 3 4 4 3 4 5 5 4 4 4 3 4 5 5 5 6 6 5 5 4 5 4 3 4 5 5 4 4 4 4 3 3 3
4 7 12 12 12 5 3 3 6 6 9 7 11 10 12 15 13 12 13 13 5 8 12 14 10 12 13 9 9 8 7 8 8 8 7 6 5 3 5 7 8 8 7 7 7 6 7 6 5 5 4 4 4 5 4 4 4 5 5 5 5 5 5 4 4 5 6 6 7 6 6 5 5 5 5 5 6 6 6 5 5 4 4 3 3 3
2 7 8 8 13 6 4 3 2 8 6 6 7 10 12 12 14 16 16 15 14 12 13 12 6 14 11 10 10 6 3 3 4 4 5 5 8 7 7 8 9 9 9 9 9 8 7 6 6 5 5 4 4 5 4 5 5 5 5 5 5 5 4 3 5 6 7 7 6 6 6 5 5 4 4 5 6 5 5 4 4 4 3 3 3 3
3 2 5 5 6 4 4 2 2 3 5 7 5 8 11 11 13 15 13 15 16 16 14 12 10 9 7 7 8 4 6 5 4 4 6 7 7 9 11 11 10 10 10 9 8 8 7 6 5 5 5 4 4 4 4 5 6 5 4 4 4 5 3 4 6 6 6 6 5 5 4 3 3 2 3 4 4 3 4 4 3 3 2 3 3 3
2 1 1 3 5 3 2 3 3 2 2 0 3 7 12 12 13 12 15 14 14 15 16 13 12 12 10 8 4 4 6 5 5 5 6 6 9 11 11 10 10 11 11 9 7 7 7 6 6 6 6 5 4 4 5 6 5 4 3 3 4 4 4 5 6 6 6 5 4 3 2 1 2 2 3 3 3 2 2 2 1 1 1 1 2 2
4 3 3 4 6 5 3 1 4 3 1 4 8 12 16 17 16 14 13 11 14 16 15 11 15 15 3 10 10 6 5 6 7 8 7 7 8 10 11 10 11 11 11 7 7 7 7 6 6 6 6 5 5 5 6 6 5 4 3 4 4 4 5 5 5 6 5 4 3 2 2 2 3 3 3 3 4 2 2 2 2 2 2 2 2 2
8 7 4 4 6 1 2 3 3 4 9 10 7 15 15 16 18 13 11 15 17 16 12 14 13 4 10 8 11 12 12 13 12 9 8 6 6 8 7 8 10 10 5 6 6 6 6 5 5 5 6 6 6 7 7 4 4 4 4 4 4 5 5 5 5 5 4 3 3 3 3 3 3 4 4 4 3 4 3 4 3 4 3 3 3 3
8 9 7 3 4 2 1 2 4 11 12 9 3 5 16 14 9 13 14 16 13 14 15 15 14 15 9 10 12 12 12 13 10 10 9 9 6 3 6 8 8 7 5 6 7 6 6 7 8 8 7 6 7 7 6 5 5 5 5 5 5 5 5 5 5 4 3 3 4 4 4 5 5 5 5 5 4 4 4 4 4 4 4 3 3 4
11 11 4 3 2 3 2 4 9 9 2 2 3 3 2 9 11 11 15 14 16 17 16 16 18 16 13 8 8 5 4 2 1 4 6 2 1 4 6 6 1 2 4 6 8 7 8 8 9 9 8 7 7 6 5 5 5 5 5 5 5 5 5 5 5 4 4 5 5 5 6 6 6 6 6 6 4 5 5 5 5 5 4 3 3 3
8 8 8 4 5 7 6 9 8 5 6 2 3 5 10 10 11 14 11 14 16 14 15 16 17 16 12 9 7 6 5 2 2 7 7 5 5 6 5 1 1 1 4 5 5 8 8 9 9 9 9 7 6 6 6 5 5 6 6 5 5 5 5 5 6 5 5 6 6 6 6 6 6 4 5 4 5 6 5 5 6 4 3 4 4 4
5 8 7 9 4 4 7 5 6 7 14 13 12 4 10 5 8 10 10 13 10 16 16 16 16 15 12 7 7 8 5 2 6 10 6 6 9 4 5 3 5 6 7 8 8 9 9 9 10 9 8 9 8 6 5 5 5 5 6 6 5 6 6 6 6 6 6 6 6 6 6 6 6 4 4 4 5 5 4 5 4 3 3 4 5 5
1 2 2 7 4 5 6 8 8 11 12 3 6 10 10 7 9 6 4 10 10 14 17 16 16 14 10 10 8 10 5 5 10 5 7 10 4 4 7 6 6 7 7 7 9 10 10 9 10 10 9 9 8 6 5 5 6 6 7 6 6 6 6 6 6 6 5 5 5 5 5 3 3 3 4 4 4 4 5 5 4 4 4 4 5 6
3 5 4 7 6 6 7 9 10 4 8 5 4 5 9 8 11 8 6 10 12 9 12 14 14 12 9 12 9 10 10 9 9 3 3 5 7 5 5 8 8 8 9 9 8 9 10 10 11 9 9 8 7 5 5 5 6 5 7 6 6 6 6 5 5 5 4 4 4 4 4 3 3 4 4 4 4 4 4 4 4 4 5 5 4 4
6 5 8 11 10 9 11 6 4 5 1 6 6 6 8 9 11 10 13 3 1 7 12 11 12 14 13 9 9 8 11 4 3 6 6 6 8 8 8 8 8 8 9 9 10 10 9 8 8 9 8 6 5 5 4 5 6 7 7 6 7 6 6 5 4 4 4 4 4 3 4 4 4 5 5 4 4 4 4 3 3 5 5 6 3 4
6 5 6 6 11 12 10 10 8 6 4 10 2 9 10 9 8 12 2 3 7 2 1 5 9 5 4 8 8 7 3 7 7 6 7 6 7 8 8 9 10 10 9 9 8 8 9 9 9 9 9 7 6 5 4 5 6 7 7 7 7 6 5 5 4 4 4 3 3 3 4 4 4 5 4 4 4 4 5 4 4 4 4 3 4 7
12 9 11 11 5 4 5 7 5 10 5 14 15 6 3 5 3 5 4 2 4 2 5 2 3 4 6 6 4 6 8 6 6 7 7 7 8 9 9 9 9 10 10 10 8 7 8 9 9 8 8 6 6 5 4 5 8 7 6 7 6 4 4 4 4 4 3 3 4 4 4 4 4 4 3 3 4 5 5 4 3 5 4 4 5 7
12 8 7 7 10 12 13 12 9 1 10 15 16 10 11 6 2 6 6 3 1 1 3 2 3 2 3 6 8 7 6 8 6 7 8 7 8 8 8 8 9 9 9 7 8 8 8 9 9 8 8 7 6 6 4 5 7 7 8 7 5 4 4 4 4 3 4 4 4 4 3 4 4 4 3 4 5 4 5 5 6 5 3 5 5 5
11 9 6 8 8 8 5 10 3 8 16 13 8 3 14 8 4 1 3 4 4 2 0 0 2 3 2 6 8 8 6 5 7 8 9 9 9 8 8 8 8 8 8 8 7 5 5 8 10 9 8 7 7 6 6 6 8 9 8 5 4 4 4 4 4 4 4 4 4 4 3 4 3 4 4 5 5 5 5 6 6 5 5 5 4 5
2 3 5 1 4 5 5 1 3 1 3 3 7 4 7 12 4 2 3 3 3 3 4 2 2 5 4 7 9 4 6 9 9 8 8 8 8 8 8 8 7 7 8 8 8 6 6 8 8 8 9 7 6 6 6 7 7 9 7 5 4 3 3 3 3 3 3 4 4 4 4 6 4 4 4 4 4 4 4 5 6 5 5 4 4 5
3 2 2 3 1 7 8 14 9 2 2 6 2 4 2 4 1 2 3 4 4 3 3 3 2 5 5 8 9 9 8 10 8 8 8 8 8 8 9 8 8 8 8 8 7 7 7 7 7 8 8 8 6 6 6 7 7 7 6 5 4 3 2 2 2 3 2 3 3 4 4 5 5 6 5 4 4 4 4 4 4 4 4 4 4 5
4 4 5 5 4 11 3 2 1 3 3 1 1 2 1 2 2 3 4 4 4 3 3 4 2 4 4 5 4 8 9 10 10 10 9 8 9 9 9 9 9 8 6 6 6 4 5 6 8 8 8 7 6 6 6 6 7 6 5 4 4 3 2 1 2 2 2 3 3 3 4 4 6 6 5 5 4 4 4 3 3 4 4 4 5 6
3 10 5 7 8 4 5 3 3 5 3 2 4 4 1 3 5 4 4 4 3 4 4 4 4 3 3 3 5 8 9 9 9 11 11 9 9 9 8 9 8 8 8 7 5 5 5 7 8 8 8 7 7 6 7 7 6 6 5 4 3 3 2 1 2 1 2 2 2 3 3 3 3 4 4 5 4 4 4 4 4 5 5 4 3 3
6 7 4 6 7 8 9 7 10 2 2 6 7 10 5 4 4 6 4 3 3 4 4 4 3 3 3 3 2 7 9 8 8 9 10 9 10 11 10 9 8 8 7 5 5 5 6 5 7 9 7 6 6 6 7 7 6 5 5 4 3 2 2 2 1 2 2 3 3 3 4 4 3 3 3 4 5 6 5 6 8 7 7 6 6 9
8 8 6 6 8 5 3 9 10 6 4 3 2 2 3 4 4 4 4 3 4 3 4 5 5 2 2 1 2 3 7 8 10 8 8 8 8 8 9 10 10 8 7 7 7 6 6 7 7 7 7 7 6 7 6 6 6 6 5 4 3 3 3 3 1 1 2 3 3 4 3 3 3 3 3 4 5 6 8 9 4 5 11 14 14 13
Wind_Direction
163 189 198 205 203 201 202 211 219 351 223 190 192 204 207 196 187 96 89 90 328 249 224 226 238 251 248 237 232 217 173 209 231 238 235 232 230 226 225 224 226 227 231 158 146 143 164 176 186 188 186 190 189 195 196 197 199 201 199 195 201 197 198 200 201 203 202 207 212 219 221 223 224 226 225 226 227 229 229 215 215 214 223 226 220 213
210 207 209 210 213 201 201 201 170 248 276 196 186 195 201 191 205 136 133 131 168 222 228 218 248 252 253 251 245 236 210 222 231 238 239 238 232 226 222 226 228 233 152 123 165 173 172 186 179 173 181 184 188 196 197 198 198 200 202 201 201 197 197 203 204 202 204 205 208 210 213 218 218 216 218 226 233 237 242 231 222 217 218 223 218 202
200 216 208 199 84 78 102 127 134 234 218 201 207 194 212 192 93 105 95 122 138 184 244 125 248 255 252 250 248 241 236 235 231 237 240 240 234 229 221 223 227 205 192 187 206 189 182 172 174 177 184 193 202 197 197 200 199 200 203 206 203 200 200 202 204 204 205 207 209 215 224 224 231 225 212 213 213 210 219 225 227 216 214 212 212 209
202 219 210 126 145 127 114 170 199 206 230 215 196 200 209 154 170 176 160 148 164 225 325 15 290 269 264 253 247 240 235 234 230 229 233 221 237 231 225 219 215 212 210 203 200 198 186 171 175 178 183 189 189 193 194 195 198 198 202 203 204 203 202 202 200 204 207 206 206 214 231 236 242 273 347 350 275 215 211 217 212 207 206 208 216 218
202 60 4 169 141 172 168 183 196 205 208 211 249 203 198 149 168 342 141 151 134 223 310 293 280 267 245 241 233 226 206 170 207 222 238 243 237 246 293 296 251 244 230 231 224 211 187 177 184 183 182 174 177 190 193 189 192 195 198 200 201 201 199 201 196 195 200 203 213 224 224 231 234 77 261 267 262 256 240 236 214 215 206 214 215 217
171 322 329 182 182 180 183 186 203 206 220 188 225 268 337 174 130 108 126 143 187 213 190 217 271 261 228 222 230 177 174 223 212 213 229 229 223 202 225 236 233 222 231 241 237 227 217 208 191 180 170 169 181 190 194 192 191 192 193 195 195 199 198 197 194 191 190 197 209 209 215 216 226 234 229 227 229 233 238 242 242 239 232 235 239 229
5 67 229 161 173 186 193 203 197 202 220 213 188 181 114 158 142 136 154 181 197 236 139 221 227 264 121 212 213 201 206 227 176 209 234 225 211 194 215 218 205 211 213 215 232 235 227 211 205 208 197 189 190 189 172 179 190 194 195 193 192 193 195 195 192 185 183 190 204 216 217 220 223 230 234 235 234 233 234 232 230 225 218 213 223 224
139 136 124 183 160 175 191 211 186 194 217 218 31 180 136 158 152 166 169 206 41 72 92 224 249 258 271 220 131 131 210 227 225 219 214 205 200 194 195 197 201 218 223 226 228 226 223 220 212 207 188 186 182 152 141 167 185 193 192 187 188 188 190 187 187 187 187 189 198 210 218 223 229 233 244 239 234 234 249 250 248 253 252 233 217 213
157 151 175 158 187 181 204 234 148 187 225 48 91 283 158 178 174 167 188 190 36 249 213 176 163 248 246 228 112 157 241 232 223 217 194 182 166 156 178 170 171 219 241 253 243 234 209 205 198 188 163 141 139 150 174 182 183 187 190 187 185 187 185 181 181 182 183 187 198 206 213 220 228 238 243 246 242 238 232 243 247 246 242 262 281 281
25 155 172 187 174 196 82 36 356 168 209 144 172 85 82 81 122 172 186 185 185 209 241 167 181 236 266 231 187 163 246 241 229 186 161 157 149 152 155 130 159 165 200 220 242 236 211 176 149 141 131 150 157 151 161 161 164 168 173 178 179 178 176 170 172 179 179 180 199 210 211 217 221 227 242 251 249 240 242 248 251 258 259 241 228 234
324 268 261 355 211 41 103 52 33 28 65 133 164 119 114 121 133 134 154 186 193 235 223 99 189 286 288 230 204 184 217 221 190 137 138 135 137 132 113 132 147 164 167 178 181 162 141 121 130 157 157 137 132 142 152 148 153 154 162 169 171 171 167 164 165 170 176 179 195 209 212 215 223 225 229 235 242 245 257 253 254 250 255 264 263 256
120 114 187 71 316 185 112 92 43 17 136 154 150 143 125 110 155 178 180 210 224 236 89 337 138 258 223 232 215 78 72 61 122 179 160 159 148 138 132 123 91 121 134 145 145 132 134 131 140 157 140 139 135 139 137 137 142 150 154 159 157 148 144 144 152 160 177 183 195 206 211 215 220 225 228 234 243 245 247 251 256 257 261 260 257 256
124 135 80 57 273 243 177 113 57 81 196 218 162 164 169 165 173 194 185 202 217 235 100 85 265 230 238 245 347 220 171 143 191 109 153 146 140 133 126 95 75 73 145 145 129 137 142 138 142 143 133 136 139 132 134 135 137 138 143 149 141 139 137 138 148 166 178 183 192 199 208 216 223 229 233 242 246 246 246 246 248 252 255 260 260 258
116 120 171 107 177 239 231 164 137 171 202 191 185 179 191 181 186 205 195 217 214 71 260 104 27 265 302 271 243 250 217 152 158 109 48 93 114 108 86 33 11 44 77 95 111 114 122 128 127 128 131 126 120 120 122 126 129 131 139 146 142 141 146 146 154 164 173 185 191 197 203 209 214 221 229 236 242 242 244 245 248 249 251 253 252 255
178 219 204 172 190 166 224 262 172 166 174 198 234 198 207 202 185 195 192 193 206 154 104 249 217 230 182 175 45 64 59 69 95 77 61 347 329 320 337 307 278 153 109 100 121 115 117 116 118 117 113 107 107 112 113 118 121 131 133 141 136 137 149 155 161 166 173 180 191 195 203 209 211 219 225 233 240 244 243 244 247 250 252 251 254 257
198 170 45 0 326 314 193 317 337 152 171 164 306 8 287 227 359 228 33 329 121 144 145 166 230 306 260 91 187 154 129 161 142 134 199 254 224 172 255 168 136 122 110 108 113 119 98 88 93 100 100 102 104 106 105 108 110 120 125 134 136 142 149 158 160 164 172 176 176 186 194 201 206 214 223 230 226 232 237 244 249 257 257 261 270 276
43 208 13 90 172 50 18 338 307 287 192 181 162 209 195 19 111 108 134 90 347 335 248 146 247 248 260 277 244 152 155 165 148 177 186 225 188 167 211 145 138 126 124 120 119 105 115 103 93 92 102 104 108 114 118 120 123 126 129 134 130 131 140 149 156 155 165 167 169 180 190 192 198 205 216 223 233 238 240 248 256 260 269 277 276 280
184 118 13 358 148 54 34 344 334 43 319 103 204 186 122 214 356 214 236 130 228 232 229 131 217 241 183 250 112 148 175 155 176 176 195 181 162 188 174 147 145 150 142 121 105 91 103 112 109 91 77 88 98 101 101 100 82 76 92 123 130 135 144 147 153 157 162 166 176 178 186 200 203 209 213 223 236 241 245 247 249 250 258 263 275 282
119 109 125 352 33 20 110 255 135 167 47 315 183 37 180 181 213 186 254 207 202 218 243 188 214 257 239 211 141 183 177 178 181 169 172 184 188 182 150 134 132 138 142 148 140 133 131 125 116 105 97 76 75 74 81 86 88 91 86 64 99 120 117 130 135 146 147 161 156 165 178 186 192 210 222 232 238 249 248 252 257 267 271 277 274 271
2 145 122 30 72 107 251 215 198 170 189 57 294 192 35 344 248 179 199 310 223 237 216 212 131 247 191 225 214 139 172 185 176 166 187 192 186 173 143 147 153 158 156 151 146 143 137 127 114 110 117 117 111 107 99 106 117 107 95 104 92 91 98 113 122 145 147 147 151 150 153 159 170 178 197 218 231 238 244 248 252 259 267 270 277 279
164 335 165 111 355 170 177 202 217 172 164 161 184 174 186 219 12 337 223 216 219 244 234 256 240 223 170 202 214 215 107 70 159 168 172 182 171 135 138 149 155 151 147 146 143 139 131 121 114 102 92 93 84 83 98 104 104 92 81 80 73 87 83 75 60 63 63 80 106 123 143 135 142 150 175 183 211 254 258 270 283 285 293 317 302 310
145 218 155 131 152 216 183 32 5 14 235 198 187 193 186 155 161 181 211 75 83 222 239 211 238 90 98 35 183 147 106 120 45 36 150 155 142 134 139 145 148 143 139 139 135 134 127 123 119 109 101 96 105 108 113 101 101 104 104 99 103 103 99 109 99 69 91 70 73 96 95 109 97 124 111 144 157 242 293 298 310 319 321 311 310 306
92 83 108 163 188 184 57 45 29 302 180 293 304 212 192 200 199 208 228 183 193 235 42 344 355 262 70 42 54 70 85 91 93 119 237 137 137 139 143 135 134 136 136 135 131 126 124 129 133 142 148 147 140 137 140 148 139 129 128 132 141 126 111 108 112 118 127 127 125 114 108 97 108 76 121 115 123 78 6 349 335 339 324 318 314 316
58 122 98 81 59 32 189 205 187 193 294 265 243 267 247 198 202 220 263 135 170 123 210 216 232 247 98 81 4 62 64 10 248 228 231 168 150 147 149 147 139 129 115 105 95 106 109 118 123 141 151 147 145 146 140 129 122 116 110 116 117 108 110 106 106 107 111 116 107 115 119 101 87 90 65 90 82 63 41 10 352 351 332 319 318 313
178 184 142 133 141 155 240 182 151 149 201 229 222 196 216 137 77 104 122 194 245 185 202 200 239 245 174 163 235 187 165 220 228 185 200 192 160 157 155 151 145 140 134 135 142 144 142 152 171 167 148 140 132 129 126 118 112 106 99 87 84 80 78 82 88 113 122 125 112 95 86 77 71 61 54 50 56 56 51 35 17 14 334 332 319 321
193 159 165 164 175 181 189 200 201 198 208 208 235 181 191 194 166 135 221 179 240 182 185 223 244 250 95 181 198 175 163 207 202 149 167 239 182 168 160 158 154 147 149 151 145 151 171 173 153 145 147 138 130 123 115 103 97 98 91 72 56 62 72 69 81 98 93 82 88 77 65 60 55 50 49 45 50 52 48 41 30 19 6 5 345 336
177 151 199 192 191 200 203 208 207 156 106 185 200 196 193 198 195 201 302 219 221 183 195 213 228 241 182 196 207 185 188 196 176 181 185 204 199 177 166 159 155 152 156 162 164 169 147 154 178 154 134 123 109 97 87 93 96 93 92 84 74 65 66 58 62 66 71 66 69 68 54 49 44 39 38 34 35 42 42 37 29 22 18 7 346 339
126 197 203 215 222 221 239 200 151 162 177 195 200 196 189 190 189 195 199 218 204 141 240 230 216 235 218 186 197 199 177 187 177 188 193 193 196 182 172 153 141 148 150 147 156 169 182 183 164 153 143 128 117 108 96 82 78 80 75 75 66 60 56 41 53 63 65 62 61 56 46 40 33 35 28 17 26 35 35 27 25 18 9 5 357 355
175 212 199 209 228 184 64 139 166 178 203 209 211 182 171 181 185 190 217 231 178 204 232 236 194 222 230 204 201 201 174 193 192 185 183 178 168 135 132 162 171 174 177 182 194 190 189 183 167 155 145 133 134 126 114 108 90 77 76 70 62 61 52 41 61 63 58 55 51 42 34 28 24 22 19 18 27 27 23 19 16 11 1 4 351 345
186 231 201 195 216 184 117 121 198 189 189 200 183 180 184 177 189 197 215 219 215 223 227 244 164 218 221 209 211 195 168 109 77 82 105 145 165 171 187 190 182 182 189 195 197 193 186 176 158 154 144 143 139 124 113 97 79 60 57 58 57 63 40 42 53 55 54 51 44 36 30 27 22 16 19 23 26 22 13 13 10 1 360 353 351 338
211 200 129 157 215 183 98 82 43 223 174 185 188 179 173 181 197 208 218 227 225 239 245 250 258 263 226 210 208 117 97 95 110 149 181 182 175 182 198 198 189 193 203 201 192 177 166 156 148 145 147 140 128 116 99 87 79 74 68 64 66 66 42 49 63 60 53 56 42 31 25 23 7 14 30 28 27 17 10 8 358 345 342 342 339 321
208 208 36 148 203 198 97 135 132 58 49 139 174 176 183 178 200 206 218 219 214 225 235 241 247 253 236 169 188 124 120 141 183 193 187 187 191 192 200 201 195 204 208 196 171 155 153 158 166 162 155 139 130 119 103 91 87 90 98 97 83 79 66 63 69 71 65 55 48 36 26 19 11 37 39 33 15 9 2 352 334 344 339 330 326 320
181 137 159 172 206 209 16 36 125 123 116 254 226 205 196 199 201 207 216 220 214 215 225 221 233 242 180 157 188 194 200 198 203 205 191 188 195 194 197 201 205 210 215 165 150 162 164 165 159 150 135 132 132 110 88 92 115 130 129 102 90 84 71 70 68 69 68 57 51 38 26 12 28 35 31 20 7 2 356 358 347 7 345 339 329 305
159 176 189 163 218 127 359 136 161 139 219 223 206 203 186 198 201 199 201 211 214 210 222 224 237 230 141 177 182 196 205 219 224 214 213 206 173 192 207 209 212 215 182 117 147 153 148 132 131 128 124 118 101 87 87 88 111 115 97 96 89 80 78 78 70 72 70 60 43 30 23 17 22 24 19 10 8 4 2 7 9 357 338 333 335 333
174 176 200 156 214 149 170 166 139 220 229 231 52 152 198 208 190 199 219 218 216 215 230 243 242 242 197 187 189 202 208 217 225 236 239 239 243 198 197 210 222 212 151 140 140 145 143 141 132 124 116 108 103 103 112 114 117 116 102 95 89 82 81 77 78 71 66 56 37 28 21 18 19 15 8 6 5 2 4 5 355 354 345 343 340 334
171 178 144 183 130 73 149 174 220 234 222 82 108 31 332 189 198 207 238 233 220 212 212 227 236 235 228 206 186 183 173 155 301 274 255 270 67 221 241 230 168 154 176 158 154 154 151 144 138 134 122 106 107 117 118 120 123 109 97 89 87 83 77 80 75 61 46 43 30 23 16 15 12 6 3 360 358 360 358 358 349 341 334 331 326 316
195 170 173 163 165 190 169 196 223 15 315 169 215 196 174 183 178 191 223 235 219 215 210 224 233 234 225 216 150 106 88 72 263 254 233 213 229 230 220 115 77 107 97 87 116 117 113 116 112 108 108 112 115 115 113 116 112 110 108 95 84 82 78 74 63 45 37 35 24 17 15 12 8 358 355 352 352 351 347 344 337 326 324 315 307 301
206 191 180 175 202 184 174 197 208 226 246 229 221 165 187 163 167 185 210 258 225 212 210 212 226 228 222 193 132 113 101 123 245 243 199 189 221 195 81 87 65 72 82 95 88 92 97 98 100 103 108 106 98 94 105 113 113 112 100 89 84 82 74 63 51 39 30 28 18 12 9 6 4 350 346 343 343 332 324 320 302 295 315 304 303 294
310 335 234 205 159 174 196 202 199 215 232 246 162 154 166 164 158 129 182 257 238 204 206 208 221 227 213 208 155 133 145 216 239 234 154 194 174 113 123 93 89 90 100 108 117 116 112 108 108 109 104 103 100 94 97 110 117 105 91 84 79 75 70 55 43 31 23 15 10 9 2 353 350 338 334 333 319 318 313 307 304 307 311 305 298 289
168 201 177 210 197 194 190 206 220 200 245 175 152 142 149 135 121 130 209 248 252 183 196 200 210 217 207 214 172 173 190 217 234 188 51 61 87 85 104 124 117 111 100 100 95 103 107 108 107 98 95 96 96 99 108 104 96 91 92 85 81 75 64 49 31 19 12 8 6 360 353 340 343 337 331 317 316 312 306 306 312 321 315 305 291 299
184 185 205 206 206 200 197 231 254 247 168 155 167 133 128 144 143 175 214 207 168 161 178 182 189 205 210 204 170 197 212 209 89 102 113 112 99 92 86 94 106 111 115 111 113 116 112 104 97 99 100 96 97 101 106 117 108 95 88 87 81 68 53 36 21 12 8 360 357 354 345 345 348 333 320 315 311 311 305 300 309 307 308 304 295 305
181 180 196 206 211 208 199 214 224 270 204 141 50 141 151 135 194 214 177 28 130 66 64 171 193 197 153 160 178 203 115 96 117 108 124 119 107 108 106 106 103 96 94 102 110 111 104 100 101 99 91 83 79 78 88 105 103 98 95 85 73 61 40 25 14 360 356 350 348 344 345 343 339 321 312 318 317 318 310 307 296 296 299 298 311 314
174 175 193 200 197 215 214 219 230 248 212 126 112 86 292 201 254 115 122 12 24 119 143 189 174 161 158 177 155 101 116 117 121 129 116 113 116 124 126 128 124 125 126 126 116 111 116 115 111 101 96 83 72 62 67 93 99 98 92 81 69 52 32 14 359 353 346 348 346 346 338 336 328 316 305 313 323 314 295 290 310 317 299 308 321 320
161 182 185 208 188 194 200 202 211 242 96 144 145 182 189 212 21 122 123 119 324 201 165 138 205 165 161 151 131 114 115 122 116 119 120 116 120 123 124 121 122 121 120 111 113 119 116 111 109 104 91 82 73 64 58 85 98 98 93 84 66 42 20 6 358 353 348 346 347 341 336 332 315 317 328 335 315 308 316 332 335 330 332 340 324 321
181 201 157 200 176 207 203 216 163 139 159 184 171 133 174 171 112 155 71 105 148 212 77 23 155 113 117 127 116 122 131 143 143 150 141 147 140 138 132 130 127 127 124 122 115 109 116 120 119 110 97 86 82 79 79 88 103 102 93 82 64 31 16 3 2 354 351 348 338 337 327 321 313 341 345 334 333 332 335 338 344 338 339 334 325 316
324 212 56 71 214 225 283 280 78 80 240 220 61 24 176 180 81 53 81 103 53 75 144 127 93 131 133 129 130 143 146 148 142 150 141 140 138 127 120 112 108 107 108 109 115 108 111 111 109 110 106 94 86 89 86 86 91 97 96 83 61 33 15 10 6 355 350 340 331 330 335 337 337 351 329 330 343 341 332 326 326 326 325 322 319 321
210 149 160 187 141 164 238 227 202 169 213 235 180 102 83 26 64 71 62 56 84 88 96 65 86 140 154 153 155 154 147 152 142 140 139 139 138 137 138 136 135 139 140 134 126 124 122 125 120 118 113 107 103 99 99 95 89 89 90 80 63 32 21 27 5 346 345 335 328 336 348 344 349 342 341 348 345 334 322 318 313 310 309 314 320 318
237 167 194 201 179 202 241 350 21 146 130 238 280 143 257 185 101 55 53 76 91 85 72 83 87 108 131 146 138 132 144 155 150 152 154 155 151 150 149 148 145 131 118 116 128 126 119 123 127 128 123 117 118 115 114 109 100 98 91 86 62 39 29 22 5 353 338 324 338 344 350 351 346 343 337 338 332 322 315 307 306 306 304 319 317 313
115 123 202 184 209 235 242 151 127 117 99 226 249 290 298 79 126 94 107 110 123 114 107 81 42 74 126 113 118 134 145 173 163 156 151 152 151 156 158 150 148 143 137 136 133 136 138 138 135 133 128 123 129 127 122 116 111 101 93 88 67 39 38 12 353 321 342 348 3 360 1 348 340 338 327 321 311 295 291 299 304 300 290 272 264 273
118 199 165 156 214 221 219 188 134 149 193 195 211 218 195 102 105 114 122 132 148 138 126 119 87 56 60 49 136 152 154 162 158 151 151 158 162 157 150 147 143 141 137 126 119 116 113 122 134 138 132 129 135 135 129 124 116 103 94 81 60 40 41 7 349 18 23 15 10 12 2 349 338 331 327 321 320 317 301 273 271 275 285 295 285 283
198 183 162 191 196 234 111 149 171 178 86 50 23 46 101 139 144 141 168 161 166 148 150 134 127 102 167 156 340 181 164 157 162 150 139 152 157 151 148 145 146 149 147 146 134 136 137 140 143 138 137 139 138 134 131 125 114 104 83 61 34 30 18 352 9 44 41 28 23 4 335 325 326 324 322 328 334 329 325 322 303 267 273 279 283 288